"Pseudo-MPEC" for P11CrBC

Created 2022 Dec 17 9:22:13 UT using Find_Orb

Click here for an explanation of pseudo-MPECs

 
 Astrometry: 
     P11CrBC* C2022 12 01pLNsHjtG,5r]+)SGV=0m0,GAstrometryh./9)2uQ\HZ0JJ*q0siF51
     P11CrBC  C2022 12 01mXLF%(=5P(vQJredacted;*`cclickhL9sc;SseWW]BP5.S6g5SWF51
     P11CrBC  C2022 12 01e5Sherep`70I%7by#,sC*`forZ,OexplanationB9ecOs@:.sen1F51

Station data:
(F51) Pan-STARRS 1, Haleakala  (N20.707234 W156.255910)  US/Hawaii.
   Observers J. Bulger, T. Lowe, A. Schultz, M. Willman. Measurers K.
   Chambers, S. Chastel, T. de Boer, L. Denneau, J. Fairlamb, H. Flewelling,
   M. Huber, C.-C. Lin, E. Magnier, Y. Ramanjooloo, R. Wainscoat, R. Weryk.
   1.8-m Ritchey-Chrétien + CCD.

Orbital elements:  P11CrBC
   Perihelion 2021 Nov 5.46750 +/- 609 TT = 11:13:11 (JD 2459523.96750)
Epoch 2022 Dec  2.0 TT = JDT 2459915.5   Earth MOID: 0.3530   Ma: 0.0206
M  96.74039134 +/- 100              (J2000 ecliptic)             AutoNEOCP
n   0.24708138 +/- 0.278            Peri.  348.92609 +/- 54
a   2.51522033 +/- 1.89             Node   332.28799 +/- 60
e   0.4579262 +/- 0.235             Incl.   11.36844 +/- 60
P   3.99                   H 18.12  G  0.15   U 11.9  SR
q 1.36343494 +/- 1.87    Q 3.66700572 +/- 44.5
From 3 observations 2022 Dec. 1 (49.4 min); mean residual 0".05
Residuals in arcseconds: 
221201 F51  .03-  .06-    221201 F51  .05+  .09+    221201 F51  .02-  .03-    

Ephemerides (geocentric):
Date (UTC) HH   RA             Dec           delta  r     elong  mag " sig PA
---- --------  ------------   ------------  ------ ------ -----  --- --------
2022 12 17 09  07 51 21.195   +32 58 08.46  2.2494 3.1363 149.3 23.0  32d 157
2022 12 17 10  07 51 18.719   +32 58 15.38  2.2492 3.1365 149.4 23.0  32d 157
2022 12 17 11  07 51 16.241   +32 58 22.30  2.2491 3.1366 149.4 23.0  32d 157
2022 12 17 12  07 51 13.760   +32 58 29.21  2.2489 3.1367 149.5 23.0  32d 157
2022 12 17 13  07 51 11.277   +32 58 36.12  2.2488 3.1369 149.5 23.0  32d 157
2022 12 17 14  07 51 08.792   +32 58 43.01  2.2486 3.1370 149.6 23.0  32d 157
2022 12 17 15  07 51 06.304   +32 58 49.91  2.2485 3.1371 149.6 23.0  32d 157
2022 12 17 16  07 51 03.814   +32 58 56.79  2.2483 3.1373 149.7 23.0  32d 157
2022 12 17 17  07 51 01.322   +32 59 03.67  2.2482 3.1374 149.7 23.0  33d 157
2022 12 17 18  07 50 58.827   +32 59 10.55  2.2480 3.1376 149.8 23.0  33d 156
2022 12 17 19  07 50 56.330   +32 59 17.41  2.2479 3.1377 149.8 23.0  33d 156
2022 12 17 20  07 50 53.831   +32 59 24.28  2.2477 3.1378 149.8 23.0  33d 156
2022 12 17 21  07 50 51.329   +32 59 31.13  2.2476 3.1380 149.9 23.0  33d 156
2022 12 17 22  07 50 48.825   +32 59 37.98  2.2474 3.1381 149.9 23.0  33d 156
2022 12 17 23  07 50 46.319   +32 59 44.82  2.2473 3.1383 150.0 23.0  33d 156
2022 12 18 00  07 50 43.810   +32 59 51.66  2.2471 3.1384 150.0 23.0  33d 156
2022 12 18 01  07 50 41.299   +32 59 58.49  2.2470 3.1385 150.1 23.0  33d 156
2022 12 18 02  07 50 38.786   +33 00 05.31  2.2468 3.1387 150.1 23.0  33d 156
2022 12 18 03  07 50 36.271   +33 00 12.13  2.2467 3.1388 150.2 23.0  33d 156
2022 12 18 04  07 50 33.753   +33 00 18.94  2.2465 3.1390 150.2 23.0  33d 156
2022 12 18 05  07 50 31.233   +33 00 25.74  2.2464 3.1391 150.3 23.0  33d 156
2022 12 18 06  07 50 28.711   +33 00 32.54  2.2462 3.1392 150.3 23.0  33d 156
2022 12 18 07  07 50 26.186   +33 00 39.33  2.2461 3.1394 150.4 23.0  33d 156
2022 12 18 08  07 50 23.659   +33 00 46.11  2.2460 3.1395 150.4 23.0  33d 156
2022 12 18 09  07 50 21.130   +33 00 52.89  2.2458 3.1397 150.5 23.0  33d 156
2022 12 18 10  07 50 18.598   +33 00 59.66  2.2457 3.1398 150.5 23.0  34d 156
2022 12 18 11  07 50 16.065   +33 01 06.42  2.2455 3.1399 150.6 23.0  34d 156
2022 12 18 12  07 50 13.529   +33 01 13.18  2.2454 3.1401 150.6 23.0  34d 156
2022 12 18 13  07 50 10.991   +33 01 19.93  2.2452 3.1402 150.6 23.0  34d 156
2022 12 18 14  07 50 08.450   +33 01 26.67  2.2451 3.1404 150.7 23.0  34d 156
2022 12 18 15  07 50 05.907   +33 01 33.41  2.2450 3.1405 150.7 23.0  34d 156
2022 12 18 16  07 50 03.362   +33 01 40.14  2.2448 3.1406 150.8 23.0  34d 156
2022 12 18 17  07 50 00.815   +33 01 46.86  2.2447 3.1408 150.8 23.0  34d 156
2022 12 18 18  07 49 58.266   +33 01 53.58  2.2445 3.1409 150.9 23.0  34d 156
2022 12 18 19  07 49 55.714   +33 02 00.29  2.2444 3.1411 150.9 23.0  34d 156
2022 12 18 20  07 49 53.160   +33 02 06.99  2.2443 3.1412 151.0 23.0  34d 156
2022 12 18 21  07 49 50.604   +33 02 13.69  2.2441 3.1413 151.0 23.0  34d 156
2022 12 18 22  07 49 48.045   +33 02 20.38  2.2440 3.1415 151.1 23.0  34d 156
2022 12 18 23  07 49 45.485   +33 02 27.06  2.2439 3.1416 151.1 23.0  34d 156
2022 12 19 00  07 49 42.922   +33 02 33.74  2.2437 3.1417 151.2 23.0  34d 156
2022 12 19 01  07 49 40.357   +33 02 40.41  2.2436 3.1419 151.2 23.0  34d 156
2022 12 19 02  07 49 37.789   +33 02 47.07  2.2434 3.1420 151.3 23.0  34d 156
2022 12 19 03  07 49 35.220   +33 02 53.72  2.2433 3.1422 151.3 23.0  34d 156
2022 12 19 04  07 49 32.648   +33 03 00.37  2.2432 3.1423 151.4 23.0  34d 156
2022 12 19 05  07 49 30.074   +33 03 07.01  2.2430 3.1424 151.4 23.0  34d 156
2022 12 19 06  07 49 27.498   +33 03 13.64  2.2429 3.1426 151.4 23.0  34d 156
2022 12 19 07  07 49 24.920   +33 03 20.27  2.2428 3.1427 151.5 23.0  34d 156
2022 12 19 08  07 49 22.339   +33 03 26.89  2.2426 3.1429 151.5 23.0  34d 156